Location: Monfort
(47.1967°N, 0.2115°W)
Time: 11:37:15
(UTC+00:00)

BREEZE-M R/B - Pass Details

Date: 24 October 2020
Orbit: 309 x 4522 km, 49.7° (Epoch: 27 November)

Event Time Altitude Azimuth Distance (km) Brightness Sun altitude
Rises 19:10:21 0° 283° (WNW) 2,660 7.8 -23.3°
Reaches altitude 10° 19:11:59 10° 285° (WNW) 1,996 6.7 -23.6°
Maximum altitude 19:16:23 74° 12° (NNE) 988 3.9 -24.3°
Enters shadow 19:18:25 48° 83° (E) 1,435 4.4 -24.7°
